Flag for U.S.A. Weather past 2 weeks in Lynchburg, Virginia, U.S.A.

Now
35 °F

Clear.


Feels Like: 35 °F
Forecast: 30 / 54 °F
Wind: No wind

Location: Lynchburg Regional Airport


UV Index: 5 (Moderate)

Visibility: 10 mi


Pressure: 30.15 "Hg

Humidity: 50%

Dew point: 18 °F

Location of LynchburgLocation

Historic Weather in Lynchburg

°F

Lynchburg temperature yesterday

Maximum temperature yesterday: 72 °F (at 11:54 AM)
Minimum temperature yesterday: 40 °F (at 11:54 PM)
Average temperature yesterday: 59 °F

Past Weeks' High & Low Weather Summary

 TemperatureHumidityPressure
High87 °F (Apr 2, 2:54 PM)94% (Apr 7, 10:01 PM)30.24 "Hg (Apr 7, 10:01 PM)
Low37 °F (Apr 16, 1:54 AM)17% (Apr 2, 2:54 PM)29.55 "Hg (Apr 8, 4:54 AM)
Average62 °F51%29.97 "Hg
* Reported Apr 1 1:54 AM — Apr 16 1:54 AM, Lynchburg, Weather by CustomWeather, © 2014

Note: Actual official high and low records may vary slightly from our data, if they occured in-between our weather recording intervals... More about our weather records

Advertising

Historic Weather Conditions — Data for Previous 24 hours

 ConditionsComfort  
Time TempWeatherWind HumidityBarometerVisibility
1:54 AM
Apr 16
37 °FClear.8 mph44%30.13 "Hg10 mi
12:54 AM38 °FClear.8 mph45%30.09 "Hg10 mi
11:54 PM
Apr 15
40 °FClear.8 mph45%30.04 "Hg10 mi
10:54 PM41 °FClear.14 mph45%30.02 "Hg10 mi
9:54 PM43 °FPassing clouds.9 mph47%29.95 "Hg10 mi
8:54 PM45 °FPassing clouds.12 mph49%29.90 "Hg10 mi
7:54 PM46 °FOvercast.10 mph58%29.83 "Hg10 mi
6:54 PM46 °FLight rain. Mostly cloudy.8 mph71%29.80 "Hg10 mi
5:54 PM48 °FLight rain. Mostly cloudy.5 mph71%29.76 "Hg10 mi
4:54 PM50 °FRain. Overcast.6 mph77%29.70 "Hg7 mi
3:54 PM51 °FLight rain. Mostly cloudy.6 mph77%29.68 "Hg7 mi
2:54 PM56 °FLight rain. Overcast.5 mph77%29.66 "Hg9 mi
1:54 PM59 °FLight rain. Mostly cloudy.5 mph81%29.62 "Hg10 mi
1:01 PM63 °FLight rain. Mostly cloudy.7 mph77%29.63 "Hg10 mi
11:54 AM72 °FCloudy.22 mph68%29.58 "Hg10 mi
10:54 AM70 °FPartly sunny.13 mph79%29.60 "Hg10 mi
9:54 AM68 °FLow clouds.12 mph84%29.60 "Hg10 mi
8:54 AM67 °FMostly cloudy.8 mph87%29.61 "Hg10 mi
7:54 AM67 °FLight rain. Mostly cloudy.5 mph87%29.63 "Hg10 mi
6:54 AM66 °FRain. Fog.3 mph87%29.65 "Hg4 mi
5:54 AM67 °FHeavy rain. Fog.6 mph87%29.67 "Hg2 mi
5:03 AM66 °FRain. Mostly cloudy.8 mph88%29.69 "Hg7 mi
4:54 AM67 °FLight rain. Fog.8 mph87%29.66 "Hg4 mi
3:54 AM67 °FRain. Mostly cloudy.16 mph85%29.67 "Hg6 mi
Weather by CustomWeather, © 2014

See weather overview